Location: Unspecified
(51.5147°N, 7.4673°E)
Time: 02:49:48
(UTC+01:00)

A-11 Canister half - Pass Details

Date: 19 February 2026
Orbit: 1512 x 1687 km, 47.2° (Epoch: 8 March)

Event Time Altitude Azimuth Distance (km) Brightness Sun altitude
Rises 19:02:30 0° 183° (S) 4,927 11.7 -11.5°
Reaches altitude 10° 19:07:01 10° 166° (SSE) 3,944 11.0 -12.2°
Maximum altitude 19:13:11 18° 128° (SE) 3,318 10.3 -13.2°
Enters shadow 19:16:35 15° 105° (ESE) 3,515 10.3 -13.7°
Drops below altitude 10° 19:19:17 10° 90° (E) 3,921 - -14.1°
Sets 19:23:43 0° 74° (ENE) 4,888 - -14.8°
